TimeCDT,TemperatureF,Dew PointF,Humidity,Sea Level PressureIn,VisibilityMPH,Wind Direction,Wind SpeedMPH,Gust SpeedMPH,PrecipitationIn,Events,Conditions,WindDirDegrees,DateUTC
12:00 AM,-22.0,-31.0,63,30.29,15.0,Calm,Calm,-,N/A,,Clear,0,2013-10-15 05:00:00
1:00 AM,-23,-31,49,30.30,15,Calm,Calm,,,Snow,Snow,,2013-10-15 06:00:00
1:00 AM,-22.0,-31.0,63,30.30,15.0,Calm,Calm,-,N/A,,Clear,0,2013-10-15 06:00:00
2:00 AM,-23.8,-32.8,63,30.30,15.0,Calm,Calm,-,N/A,,Clear,0,2013-10-15 07:00:00
3:00 AM,-23.8,-31.0,69,30.31,15.0,Calm,Calm,-,N/A,,Clear,0,2013-10-15 08:00:00
4:00 AM,-22.0,-31.0,63,30.31,15.0,Calm,Calm,-,N/A,,Clear,0,2013-10-15 09:00:00
5:00 AM,-22.0,-31.0,63,30.31,15.0,Calm,Calm,-,N/A,,Clear,0,2013-10-15 10:00:00
6:00 AM,-18.4,-25.6,70,30.30,15.0,Calm,Calm,-,N/A,,Clear,0,2013-10-15 11:00:00
7:00 AM,-24,-33,46,30.30,15,Calm,Calm,,,Snow,Snow,,2013-10-15 12:00:00
7:00 AM,-23.8,-32.8,63,30.30,15.0,Calm,Calm,-,N/A,,Clear,0,2013-10-15 12:00:00
8:00 AM,-23.8,-32.8,63,30.30,15.0,Calm,Calm,-,N/A,,Partly Cloudy,0,2013-10-15 13:00:00
9:00 AM,-22.0,-31.0,63,30.30,15.0,Calm,Calm,-,N/A,,Partly Cloudy,0,2013-10-15 14:00:00
10:00 AM,-23.8,-32.8,63,30.30,15.0,Calm,Calm,-,N/A,,Partly Cloudy,0,2013-10-15 15:00:00
11:00 AM,-23.8,-31.0,69,30.30,15.0,Calm,Calm,-,N/A,,Partly Cloudy,0,2013-10-15 16:00:00
12:00 PM,-23.8,-32.8,63,30.28,15.0,Calm,Calm,-,N/A,,Partly Cloudy,0,2013-10-15 17:00:00
1:00 PM,-23,-31,49,30.29,15,Calm,Calm,,,,Partly Cloudy,,2013-10-15 18:00:00
1:00 PM,-22.0,-31.0,63,30.29,15.0,Calm,Calm,-,N/A,,Partly Cloudy,0,2013-10-15 18:00:00
2:00 PM,-25.6,-32.8,69,30.27,15.0,Calm,Calm,-,N/A,,Partly Cloudy,0,2013-10-15 19:00:00
3:00 PM,-25.6,-34.6,63,30.27,15.0,ESE,2.3,-,N/A,,Partly Cloudy,110,2013-10-15 20:00:00
4:00 PM,-23.8,-31.0,69,30.26,15.0,Calm,Calm,-,N/A,,Partly Cloudy,0,2013-10-15 21:00:00
5:00 PM,-23.8,-32.8,63,30.26,15.0,SSE,2.3,-,N/A,,Partly Cloudy,150,2013-10-15 22:00:00
6:00 PM,-27.4,-36.4,62,30.27,15.0,Calm,Calm,-,N/A,,Partly Cloudy,0,2013-10-15 23:00:00
7:00 PM,-26,-35,46,30.25,15,East,2.3,,,,Scattered Clouds,80,2013-10-16 00:00:00
7:00 PM,-25.6,-34.6,63,30.25,15.0,ENE,2.3,-,N/A,,Partly Cloudy,70,2013-10-16 00:00:00
8:00 PM,-27.4,-36.4,62,30.24,15.0,SE,2.3,-,N/A,,Partly Cloudy,140,2013-10-16 01:00:00
9:00 PM,-23.8,-32.8,63,30.22,15.0,Calm,Calm,-,N/A,,Partly Cloudy,0,2013-10-16 02:00:00
10:00 PM,-23.8,-32.8,63,30.21,15.0,SE,2.3,-,N/A,,Partly Cloudy,130,2013-10-16 03:00:00
11:00 PM,-22.0,-31.0,63,30.20,15.0,East,2.3,-,N/A,,Partly Cloudy,80,2013-10-16 04:00:00